Tracking 18630 objects as of 25-May-2017
HD Live streaming from Space Station
objects crossing your sky now

NAVSTAR 28 (USA 85)

Track NAVSTAR 28 (USA 85) now!
NAVSTAR 28 (USA 85) is classified as:


NORAD ID: 22231
Int'l Code: 1992-079A
Perigee: 20,009.7 km
Apogee: 20,468.8 km
Inclination: 55.3 °
Period: 720.0 minutes
Semi major axis: 26610 km
RCS: 3.981 m2 (large)
Launch date: November 22, 1992
Source: United States (US)
Launch site: AIR FORCE EASTERN TEST RANGE (AFETR)
PRN:
Your satellite tracking list
Your tracking list is empty





NASA's NSSDC Master Catalog

Two Line Element Set (TLE):
1 22231U 92079A   17144.49938244 +.00000026 +00000-0 +00000-0 0  9995
2 22231 055.2980 227.9020 0086258 310.7757 327.1087 02.00558855179511
Source of the keplerian elements: AFSPC